This is the latest recevied weather packets stored in our database for station/object 9W8AKN-L. If no packets are shown the sender has not sent any weather packets the latest 1 day(s).
| Time | Temp. | Humidity | Pressure | Rain* | Wind** | Luminosity | Snow |
|---|---|---|---|---|---|---|---|
| 1778097040 | 27.78° C | 95% | 1008.6 hPa | - | - | - | - |
| 1778090739 | 28.33° C | 93% | 1009.1 hPa | - | - | - | - |
| 1778089839 | 28.33° C | 93% | 1009.5 hPa | - | - | - | - |
| 1778084438 | 28.33° C | 89% | 1010.4 hPa | - | - | - | - |
| 1778083538 | 28.89° C | 88% | 1010.4 hPa | - | - | - | - |
| 1778082638 | 28.89° C | 88% | 1010.4 hPa | - | - | - | - |
| 1778081738 | 28.89° C | 87% | 1010.7 hPa | - | - | - | - |
| 1778080838 | 28.89° C | 86% | 1010.5 hPa | - | - | - | - |
| 1778078138 | 28.89° C | 84% | 1010 hPa | - | - | - | - |
| 1778077238 | 29.44° C | 79% | 1009.8 hPa | - | - | - | - |
| 1778076338 | 29.44° C | 77% | 1009.6 hPa | - | - | - | - |
| 1778070037 | 30° C | 76% | 1008.8 hPa | - | - | - | - |
| 1778069137 | 30° C | 75% | 1008.4 hPa | - | - | - | - |
| 1778068237 | 30° C | 75% | 1008.2 hPa | - | - | - | - |
| 1778063736 | 30.56° C | 72% | 1006.7 hPa | - | - | - | - |
| 1778062836 | 30.56° C | 71% | 1006.7 hPa | - | - | - | - |
| 1778061936 | 30.56° C | 71% | 1006.5 hPa | - | - | - | - |
| 1778061036 | 30.56° C | 73% | 1006.5 hPa | - | - | - | - |
| 1778060136 | 31.11° C | 72% | 1006 hPa | - | - | - | - |
| 1778059236 | 31.11° C | 74% | 1005.8 hPa | - | - | - | - |
| 1778058336 | 31.11° C | 73% | 1005.4 hPa | - | - | - | - |
| 1778056540 | 31.11° C | 76% | 1005.8 hPa | - | - | - | - |
| 1778055640 | 31.11° C | 78% | 1005.6 hPa | - | - | - | - |
| 1778054740 | 30.56° C | 77% | 1005.5 hPa | - | - | - | - |
| 1778053840 | 30.56° C | 73% | 1005.5 hPa | - | - | - | - |
* Rain since midnight (hover to see other rain measurements)
** Current wind speed in m/s (hover to see current wind gust speed)